Voltar ao catálogo

STARLINK-34223

AtivoComunicaçõesVLEO
NORAD 64336·PAYLOAD·🇺🇸 United States

Lançado Jun 10, 2025 de Cape Canaveral Space Force Station

Loading…

Próximas Passagens (próximas 24 horas)

TLE

AtualizadoSource: CelesTrak SupGP

Época: Sep 14, 2026, 21:36 UTC

1 64336C 25124V   26257.90048611 -.00044706  00000+0 -16195-2 0  2570
2 64336  43.0008 129.3730 0001375 270.2312   6.8978 15.27594675    17

Acompanhe STARLINK-34223 em tempo real com AllMySat

Download on the App Store